This is the latest recevied weather packets stored in our database for station/object HB9CEY-10. If no packets are shown the sender has not sent any weather packets the latest 1 day(s).
| Time | Temp. | Humidity | Pressure | Rain* | Wind** | Luminosity | Snow |
|---|---|---|---|---|---|---|---|
| 1778057957 | 13.33° C | 50% | 1009 hPa | - | - | - | - |
| 1778057057 | 13.89° C | 48% | 1009 hPa | - | - | - | - |
| 1778055257 | 14.44° C | 49% | 1008.6 hPa | - | - | - | - |
| 1778054357 | 12.78° C | 49% | 1008.6 hPa | - | - | - | - |
| 1778048956 | 10° C | 50% | 1008.8 hPa | - | - | - | - |
| 1778047156 | 10° C | 50% | 1008.9 hPa | - | - | - | - |
| 1778046256 | 10° C | 50% | 1009 hPa | - | - | - | - |
| 1778045356 | 9.44° C | 50% | 1009 hPa | - | - | - | - |
| 1778044456 | 9.44° C | 50% | 1009.1 hPa | - | - | - | - |
| 1778043556 | 9.44° C | 50% | 1009 hPa | - | - | - | - |
| 1778042656 | 9.44° C | 50% | 1008.9 hPa | - | - | - | - |
| 1778041756 | 9.44° C | 50% | 1008.9 hPa | - | - | - | - |
| 1778040856 | 9.44° C | 50% | 1008.9 hPa | - | - | - | - |
| 1778039956 | 9.44° C | 50% | 1009.2 hPa | - | - | - | - |
| 1778039056 | 9.44° C | 50% | 1009.5 hPa | - | - | - | - |
| 1778033655 | 10° C | 50% | 1009.6 hPa | - | - | - | - |
| 1778032755 | 10° C | 50% | 1009.8 hPa | - | - | - | - |
| 1778031855 | 10° C | 50% | 1009.8 hPa | - | - | - | - |
| 1778030955 | 10° C | 50% | 1010.1 hPa | - | - | - | - |
| 1778030055 | 10° C | 50% | 1010.3 hPa | - | - | - | - |
| 1778029155 | 10° C | 50% | 1010.5 hPa | - | - | - | - |
* Rain since midnight (hover to see other rain measurements)
** Current wind speed in m/s (hover to see current wind gust speed)